Regional Weather Roundup
Issued by NWS Memphis, TN

Home | Current Version | Previous Version | Text Only | Print | Product List | Glossary On
Versions: 1 2 3 4 5 6 7 8 9 10 11 12 13 14 15 16 17 18 19 20 21 22 23 24 25 26 27 28 29 30 31 32 33 34 35 36 37 38 39 40 41 42 43 44 45 46 47 48 49 50
000
ASUS44 KMEG 061010
RWRMEG
MEMPHIS CWA HOURLY WEATHER ROUNDUP
NATIONAL WEATHER SERVICE MEMPHIS TN
400 AM CST TUE DEC 06 2016

...WEST TENNESSEE...

CITY           SKY/WX    TMP DP  RH WIND       PRES   REMARKS
MEMPHIS INTL   HVY RAIN  46  46 100 NW10      29.63R FOG
NWS MEMPHIS      N/A     45 N/A N/A MISG        N/A
JACKSON        RAIN      48  47  96 NW12      29.61S FOG
LEXINGTON      CLOUDY    46  46 100 NW3       29.57F
DYERSBURG      CLOUDY   N/A N/A N/A N8        29.62F
UNION CITY     CLOUDY    43  41  93 NW8       29.64S
PARIS          CLOUDY    41  41 100 N8        29.61F


...EASTERN ARKANSAS...

CITY           SKY/WX    TMP DP  RH WIND       PRES   REMARKS
JONESBORO      HVY RAIN  42  40  92 N10       29.69S FOG
WEST MEMPHIS   RAIN      45  45 100 N6        29.65R FOG
BATESVILLE     CLOUDY    41  39  93 NW3       29.72F
NEWPORT        LGT RAIN  41  41 100 N10       29.70F
WALNUT RIDGE   CLOUDY    41  37  87 N8        29.71F
BLYTHEVILLE    LGT RAIN  44  43  96 N16       29.66F
SEARCY         LGT RAIN  43  42  97 NW5       29.74R
STUTTGART      CLOUDY    45  39  81 NW14      29.73R
PINE BLUFF     CLOUDY    45  44  97 NW8       29.74R
MONTICELLO     CLOUDY    46  44  93 NW13      29.72S


...NORTH MISSISSIPPI...

CITY           SKY/WX    TMP DP  RH WIND       PRES   REMARKS
TUPELO         CLOUDY    56  54  93 SE8       29.58F
OXFORD         LGT RAIN  48  48 100 CALM      29.60F
BATESVILLE     DRIZZLE   50  49  97 W3        29.61R
TUNICA         RAIN      45  45 100 NW8       29.64S
CLARKSDALE     CLOUDY    48  48 100 W13       29.66R FOG
GREENWOOD      CLOUDY    52  51  97 SW7       29.63R
COLUMBUS       CLOUDY    56  56  99 S5        29.60F
STARKVILLE     DRIZZLE   55  54  94 SW7       29.62S
GOLDEN TRIANGL CLOUDY    55  52  88 SE9       29.56F


...SOUTHEAST MISSOURI...

CITY           SKY/WX    TMP DP  RH WIND       PRES   REMARKS
KENNETT        LGT RAIN  43  43 100 N15       29.67S
WEST PLAINS    CLOUDY    39  38  96 NW7       29.73F WCI  34
POPLAR BLUFF   RAIN      41  40  96 NE7       29.70F FOG
CAPE GIRARDEAU RAIN      40  38  93 N6        29.70F FOG


...NORTHWEST ALABAMA...

CITY           SKY/WX    TMP DP  RH WIND       PRES   REMARKS
MUSCLE SHOALS  LGT RAIN  56  53  90 SE10      29.62F


...MIDDLE TENNESSEE...

CITY           SKY/WX    TMP DP  RH WIND       PRES   REMARKS
NASHVILLE      RAIN      50  48  93 NE6       29.66R FOG
CLARKSVILLE    CLOUDY    46  44  93 E5        29.63F
COLUMBIA       PTCLDY   N/A N/A N/A SE6       29.56F


...WESTERN KENTUCKY...

CITY           SKY/WX    TMP DP  RH WIND       PRES   REMARKS
PADUCAH        HVY RAIN  42  39  89 N9        29.69R FOG
FORT CAMPBELL  CLOUDY    45  45 100 NE6       29.61F


...CENTRAL ARKANSAS...

CITY           SKY/WX    TMP DP  RH WIND       PRES   REMARKS
LITTLE ROCK    LGT RAIN  43  43 100 W6        29.75R FOG


SKY/WX REPORTED AS FAIR MEANS FEW OR NO CLOUDS BELOW
12 THOUSAND FEET.




USA.gov is the U.S. government's official web portal to all federal, state and local government web resources and services.